Location: Milton
(43.5183°N, 79.8775°W)
Time: 01:10:27
(UTC+00:00)

SO-50 - Visible Passes

Search period start: 31 March 2023 00:00
Search period end: 10 April 2023 00:00
Orbit: 586 x 691 km, 64.6° (Epoch: 29 March)

Date Brightness Start Highest point End Pass type
(mag) Time Alt. Az. Time Alt. Az. Time Alt. Az.
31 Mar ? 06:10:02 11° N 06:10:02 11° N 06:10:28 10° N visible
01 Apr ? 09:56:18 10° N 09:57:53 11° NNE 09:59:27 10° NE visible
02 Apr ? 05:17:18 12° N 05:17:18 12° N 05:17:43 10° N visible
02 Apr ? 10:18:45 10° N 10:22:08 19° NE 10:25:27 10° E visible
03 Apr ? 05:39:31 11° NNW 05:39:31 11° NNW 05:40:14 10° N visible
04 Apr ? 04:24:03 13° N 04:24:03 13° N 04:24:50 10° NNE visible
04 Apr ? 09:26:00 10° N 09:28:35 14° NNE 09:31:08 10° ENE visible
05 Apr ? 03:08:17 11° NNE 03:08:17 11° NNE 03:08:29 10° NNE visible
05 Apr ? 04:45:43 15° NNW 04:45:43 15° NNW 04:47:42 10° N visible
05 Apr ? 09:48:49 10° NNW 09:52:43 24° NE 09:56:31 10° E visible
06 Apr ? 03:29:11 26° N 03:29:11 26° N 03:31:49 10° NNE visible
06 Apr ? 08:33:37 10° N 08:34:58 11° NNE 08:36:19 10° NE visible
06 Apr ? 10:12:00 10° NNW 10:16:36 44° NE 10:21:02 10° ESE visible
07 Apr ? 00:30:33 10° ESE 00:30:49 10° ESE 00:31:05 10° ESE visible
07 Apr ? 02:05:29 10° SSW 02:10:20 80° SE 02:15:16 10° NE visible
07 Apr ? 03:47:42 10° W 03:51:17 20° NW 03:54:53 10° N visible
07 Apr ? 08:55:55 10° N 08:59:12 18° NE 09:02:25 10° E visible
08 Apr ? 00:50:03 10° SSE 00:53:53 24° ESE 00:57:45 10° ENE visible
08 Apr ? 02:29:13 10° SW 02:33:57 50° NW 02:38:44 10° NNE visible
08 Apr ? 04:13:30 10° NW 04:15:28 12° NNW 04:17:26 10° N visible
08 Apr ? 09:18:55 10° NNW 09:23:12 31° NE 09:27:21 10° ESE visible
09 Apr ? 01:12:26 10° SSW 01:17:08 52° ESE 01:21:55 10° NE visible
09 Apr ? 02:53:39 10° W 02:57:47 26° NW 03:01:56 10° NNE visible
09 Apr ? 08:03:09 10° N 08:05:36 14° NNE 08:08:01 10° ENE visible
09 Apr ? 09:42:12 10° NNW 09:46:57 63° NE 09:51:31 10° SE visible
